Stations météo

Publicité
Chassiron, France (7314): Température de l'air & dewpoint: 16.02.2020 04:00:00 - 22.02.2020 04:00:00 (CET)Chassiron, France (7314): Vitesse du vent & gusts: 16.02.2020 04:00:00 - 22.02.2020 04:00:00 (CET)Chassiron, France (7314): Direction du vent: 16.02.2020 04:00:00 - 22.02.2020 04:00:00 (CET)Chassiron, France (7314): reduced air pressure: 16.02.2020 04:00:00 - 22.02.2020 04:00:00 (CET)Chassiron, France (7314): visibility: 16.02.2020 04:00:00 - 22.02.2020 04:00:00 (CET)Chassiron, France (7314): Quantités de précipitations: 16.02.2020 04:00:00 - 22.02.2020 04:00:00 (CET)
Date & Time tt [°C] td [°C] ff [km/h] ff [knt] fx [km/h] fx [knt] dd ppp [hPa] vv [km] rr [mm]
22.02.2020 04:00:00 5,4 2,4 8 5 13 7 SSE 1031,7 13 0,0
22.02.2020 03:00:00 5,9 3,4 4 2 8 4 S 1031,9 - 0,0
22.02.2020 02:00:00 6,0 2,6 7 4 13 7 SE 1031,8 - 0,0
22.02.2020 01:00:00 6,7 3,7 6 3 13 7 SSE 1032,1 13 0,0
22.02.2020 00:00:00 6,6 2,9 9 5 13 7 SSE 1032,4 - 0,0
21.02.2020 23:00:00 7,0 2,5 3 2 6 3 S 1033,1 - 0,0
21.02.2020 22:00:00 8,7 3,7 6 3 9 5 W 1032,8 20 0,0
21.02.2020 21:00:00 8,1 2,3 4 2 8 4 S 1032,8 - 0,0
21.02.2020 20:00:00 9,1 2,9 4 2 7 4 WSW 1032,8 - 0,0
21.02.2020 19:00:00 8,9 2,2 3 1 6 4 NW 1032,7 12 0,0
21.02.2020 18:00:00 10,0 2,6 3 1 6 3 W 1032,5 - 0,0
21.02.2020 17:00:00 10,6 3,1 3 1 6 4 N 1032,5 - 0,0
21.02.2020 16:00:00 11,6 3,1 2 1 8 5 NNW 1033,1 12 0,0
21.02.2020 15:00:00 11,5 3,3 3 2 10 5 W 1033,4 - 0,0
21.02.2020 14:00:00 11,1 3,4 6 4 11 6 W 1033,8 - 0,0
21.02.2020 13:00:00 11,2 4,4 5 3 9 5 WSW 1034,4 12 0,0
21.02.2020 12:00:00 10,3 3,6 4 2 12 6 ENE 1034,5 - 0,0
21.02.2020 11:00:00 10,6 4,7 6 4 13 7 ESE 1034,5 - 0,0
21.02.2020 10:00:00 9,4 4,6 7 4 12 6 E 1034,1 12 0,0
21.02.2020 09:00:00 8,0 4,2 7 4 14 8 ENE 1033,5 - 0,0
21.02.2020 08:00:00 7,6 3,1 10 6 14 8 NE 1033,0 - 0,0
21.02.2020 07:00:00 7,3 3,5 6 4 14 7 ENE 1032,6 12 0,0
21.02.2020 06:00:00 8,0 3,5 9 5 18 10 NE 1032,3 - 0,0
21.02.2020 05:00:00 8,4 4,2 13 7 18 10 N 1032,3 - 0,0
21.02.2020 04:00:00 8,7 4,9 13 7 25 13 N 1032,0 12 0,0
21.02.2020 03:00:00 9,4 4,4 17 9 27 14 N 1031,9 - 0,0
21.02.2020 02:00:00 8,9 6,5 3 2 8 4 N 1031,9 - 0,0
21.02.2020 01:00:00 9,1 6,5 5 3 18 10 N 1031,4 12 0,0
21.02.2020 00:00:00 9,6 6,9 14 7 21 12 NNW 1030,9 - 0,0
20.02.2020 23:00:00 9,8 7,0 17 9 35 19 NNW 1030,2 - 0,0
20.02.2020 22:00:00 10,3 7,5 28 15 40 22 NNW 1029,1 - 0,0
20.02.2020 21:00:00 10,6 8,2 29 16 41 22 NW 1027,8 - 0,0
20.02.2020 20:00:00 10,8 8,9 24 13 51 28 NW 1026,8 - 0,0
20.02.2020 19:00:00 11,6 10,5 32 17 50 27 SW 1025,1 7 0,0
20.02.2020 18:00:00 11,5 9,7 40 22 57 31 WSW 1024,6 - 0,0
20.02.2020 17:00:00 11,9 9,6 32 17 46 25 SW 1024,1 - 0,0
20.02.2020 16:00:00 12,1 9,5 32 17 44 24 SW 1023,6 12 0,0
20.02.2020 15:00:00 11,8 9,4 29 16 42 23 SW 1023,6 - 0,0
20.02.2020 14:00:00 11,6 9,7 29 16 43 23 SSW 1023,4 - 0,0
20.02.2020 13:00:00 11,6 9,5 29 16 42 23 SSW 1023,9 10 0,0
20.02.2020 12:00:00 11,3 9,2 31 17 42 23 S 1023,9 - 0,0
20.02.2020 11:00:00 11,1 9,2 29 16 40 21 S 1023,8 - 0,0
20.02.2020 10:00:00 10,7 8,6 29 16 41 22 S 1023,7 10 0,0
20.02.2020 09:00:00 10,6 8,9 24 13 42 23 S 1023,1 - 0,0
20.02.2020 08:00:00 10,4 8,5 26 14 40 21 S 1022,7 - 0,0
20.02.2020 07:00:00 10,8 8,4 24 13 32 17 S 1023,0 10 0,0
20.02.2020 06:00:00 10,8 8,6 22 12 36 19 SW 1023,4 - 0,0
20.02.2020 05:00:00 11,1 9,0 21 11 33 18 SSW 1023,4 - 0,0
20.02.2020 04:00:00 11,0 8,4 22 12 32 17 S 1023,6 12 0,0
20.02.2020 03:00:00 11,3 8,2 20 11 27 15 S 1024,2 - 0,0
20.02.2020 02:00:00 11,1 8,3 19 10 29 15 SSW 1025,0 - 0,0
20.02.2020 01:00:00 11,0 8,6 19 11 32 17 SSW 1025,7 12 0,0
20.02.2020 00:00:00 10,9 8,6 20 11 28 15 SW 1026,2 - 0,0
19.02.2020 23:00:00 10,8 8,9 19 11 26 14 SW 1026,7 - 0,0
19.02.2020 22:00:00 10,8 8,7 16 9 29 16 SSW 1027,3 20 0,0
19.02.2020 21:00:00 10,9 9,0 18 10 26 14 SW 1027,9 - 0,0
19.02.2020 20:00:00 10,9 8,8 16 9 24 13 SW 1028,3 - 0,0
19.02.2020 19:00:00 11,1 8,8 20 11 28 15 SW 1028,5 - 0,0
19.02.2020 18:00:00 11,4 9,1 16 9 24 13 SW 1028,8 - 0,0
19.02.2020 17:00:00 11,7 9,1 18 10 25 14 SW 1029,2 - 0,0
19.02.2020 16:00:00 12,0 9,4 19 10 26 14 SW 1029,5 - 0,0
19.02.2020 15:00:00 12,1 9,5 18 10 29 16 SW 1030,1 - 0,0
19.02.2020 14:00:00 12,0 9,6 21 11 28 15 WSW 1030,8 - 0,0
19.02.2020 13:00:00 11,8 9,2 18 10 29 16 WSW 1031,7 10 0,0
19.02.2020 12:00:00 11,6 9,2 18 10 31 17 WSW 1031,9 - 0,0
19.02.2020 11:00:00 11,6 9,2 23 12 30 16 W 1032,0 - 0,0
19.02.2020 10:00:00 11,4 9,1 23 12 35 19 W 1031,9 - 0,0
19.02.2020 09:00:00 11,3 8,9 25 14 36 20 W 1031,3 - 0,0
19.02.2020 08:00:00 11,1 8,7 29 16 39 21 W 1030,6 - 0,0
19.02.2020 07:00:00 11,0 8,7 27 15 36 20 W 1030,7 12 0,0
19.02.2020 06:00:00 11,0 8,6 27 15 46 25 W 1030,7 - 0,0
19.02.2020 05:00:00 11,1 8,5 32 17 56 30 W 1030,4 - 0,0
19.02.2020 04:00:00 11,0 8,6 36 19 49 27 W 1030,1 12 0,0
19.02.2020 03:00:00 11,1 8,5 33 18 51 27 W 1030,2 - 0,0
19.02.2020 02:00:00 11,0 8,6 38 21 61 33 W 1030,3 - 0,0
19.02.2020 01:00:00 11,2 8,1 35 19 51 27 W 1030,5 12 0,0
19.02.2020 00:00:00 11,3 8,2 31 17 46 25 WSW 1030,9 - 0,0
18.02.2020 23:00:00 10,9 7,9 32 18 49 26 WSW 1031,3 - 0,2
18.02.2020 22:00:00 9,6 7,0 23 13 61 33 W 1032,1 15 0,2
18.02.2020 21:00:00 10,9 7,2 31 17 44 24 W 1031,5 - 0,0
18.02.2020 20:00:00 10,8 6,7 28 15 40 22 W 1031,8 - 0,0
18.02.2020 19:00:00 10,7 8,1 16 9 34 18 WSW 1031,7 8 0,0
18.02.2020 18:00:00 10,0 6,7 21 12 44 24 W 1031,7 - 0,4
18.02.2020 17:00:00 11,0 6,7 24 13 48 26 WSW 1031,8 - 0,0
18.02.2020 16:00:00 11,6 7,5 25 14 35 19 W 1031,8 - 0,0
18.02.2020 15:00:00 11,4 7,3 20 11 32 18 W 1032,0 - 0,0
18.02.2020 14:00:00 10,8 7,5 13 7 26 14 WSW 1032,7 - 0,2
18.02.2020 13:00:00 10,4 6,0 20 11 50 27 WSW 1033,3 14 0,6
18.02.2020 12:00:00 9,2 6,3 33 18 50 27 W 1033,7 - 0,0
18.02.2020 11:00:00 11,0 7,1 18 10 29 16 W 1033,6 - 0,0
18.02.2020 10:00:00 10,5 5,3 26 14 40 22 WSW 1033,1 - 0,0
18.02.2020 09:00:00 10,1 6,4 29 15 40 21 W 1032,7 - 0,0
18.02.2020 08:00:00 10,3 6,3 20 11 34 19 W 1032,2 - 0,0
18.02.2020 07:00:00 10,1 6,1 18 10 29 16 W 1032,0 14 0,0
18.02.2020 06:00:00 9,6 5,6 23 12 44 24 WSW 1032,1 - 0,0
18.02.2020 05:00:00 9,8 6,3 16 8 38 20 SW 1031,8 - 0,0
18.02.2020 04:00:00 9,4 4,8 32 17 62 34 WSW 1032,0 14 0,2
18.02.2020 03:00:00 10,3 6,3 31 17 49 26 W 1032,0 - 0,0
18.02.2020 02:00:00 10,5 5,7 27 15 42 23 W 1032,0 - 0,0
18.02.2020 01:00:00 10,5 6,1 27 15 54 29 W 1031,7 17 0,0
18.02.2020 00:00:00 10,6 5,8 31 17 50 27 W 1031,4 - 0,0
17.02.2020 23:00:00 10,4 6,5 30 16 50 27 W 1031,2 - 0,0
17.02.2020 22:00:00 8,8 6,2 41 22 79 43 W 1031,0 12 1,4
17.02.2020 21:00:00 10,5 6,3 31 17 55 30 W 1030,0 - 0,0
17.02.2020 20:00:00 10,8 6,9 32 17 54 29 W 1029,2 - 0,0
17.02.2020 19:00:00 10,6 6,5 33 18 50 27 W 1028,3 20 0,0
17.02.2020 18:00:00 10,6 6,5 33 18 69 37 W 1027,6 - 0,2
17.02.2020 17:00:00 11,3 7,4 25 14 49 26 W 1026,9 - 0,0
17.02.2020 16:00:00 11,0 5,9 40 21 54 29 W 1026,0 9 0,0
17.02.2020 15:00:00 11,8 7,5 31 17 47 25 W 1025,5 - 0,0
17.02.2020 14:00:00 11,0 7,1 32 17 65 35 W 1025,3 - 0,2
17.02.2020 13:00:00 12,0 7,5 40 22 58 32 W 1025,0 12 0,0
17.02.2020 12:00:00 11,6 8,6 20 11 42 23 W 1024,6 - 0,0
17.02.2020 11:00:00 11,6 9,0 33 18 49 27 WSW 1023,6 - 0,0
17.02.2020 10:00:00 11,2 8,2 37 20 53 29 WSW 1023,1 8 0,0
17.02.2020 09:00:00 10,6 8,9 31 17 47 25 SW 1022,3 - 0,0
17.02.2020 08:00:00 9,8 8,4 38 20 49 27 SSW 1021,1 - 1,4
17.02.2020 07:00:00 9,4 7,7 25 13 34 18 SW 1021,0 - 0,6
17.02.2020 06:00:00 9,5 7,8 22 12 43 23 SW 1020,7 - 1,4
17.02.2020 05:00:00 9,4 7,7 26 14 40 22 W 1020,6 - 1,4
17.02.2020 04:00:00 10,1 8,7 28 15 42 23 WSW 1020,0 - 1,0
17.02.2020 03:00:00 10,7 10,4 19 10 28 15 SW 1019,8 - 0,8
17.02.2020 02:00:00 10,5 10,2 14 7 28 15 WSW 1019,2 - 2,2
17.02.2020 01:00:00 10,7 10,4 19 10 26 14 W 1019,2 4,0 2,1
17.02.2020 00:00:00 10,6 10,1 14 7 21 11 SW 1019,5 - 1,4
16.02.2020 23:00:00 10,6 10,1 16 9 26 14 W 1019,5 - 1,6
16.02.2020 22:00:00 10,6 10,0 22 12 42 23 NW 1018,8 4,0 1,4
16.02.2020 21:00:00 10,8 9,6 33 18 68 37 NW 1017,5 - 0,0
16.02.2020 20:00:00 14,3 10,5 40 22 58 32 S 1015,7 - 0,0
16.02.2020 19:00:00 13,9 10,3 35 19 61 33 S 1015,5 - 0,0
16.02.2020 18:00:00 15,0 10,6 42 23 64 34 S 1015,1 - 0,0
16.02.2020 17:00:00 13,6 10,9 29 16 49 26 S 1015,3 - 0,0
16.02.2020 16:00:00 13,4 11,1 29 16 44 24 S 1015,3 8 0,0
16.02.2020 15:00:00 13,4 11,5 29 16 44 24 S 1015,6 - 0,0
16.02.2020 14:00:00 13,3 11,4 29 16 43 23 S 1016,0 - 0,0
16.02.2020 13:00:00 12,6 10,7 30 16 44 24 S 1016,4 7 0,0
16.02.2020 12:00:00 12,4 10,5 33 18 44 24 S 1016,6 - 0,0
16.02.2020 11:00:00 12,6 11,2 33 18 45 24 S 1016,0 - 0,0
16.02.2020 10:00:00 12,4 11,1 34 18 42 23 S 1016,1 12 0,0
16.02.2020 09:00:00 12,2 11,3 31 17 40 22 S 1016,1 - 0,0
16.02.2020 08:00:00 12,0 10,9 23 12 36 20 S 1016,0 - 0,0
16.02.2020 07:00:00 11,8 10,7 24 13 32 18 S 1016,0 - 0,0
16.02.2020 06:00:00 11,9 10,5 24 13 32 18 S 1016,4 - 0,0
16.02.2020 05:00:00 12,1 10,5 23 12 42 23 S 1016,4 - 0,0
16.02.2020 04:00:00 12,4 10,5 29 16 42 23 S 1016,2 14 0,0

tt = Température de l'air
td = dewpoint
ff = Vitesse du vent
fx = gusts
dd = Direction du vent
ppp = reduced air pressure
vv = visibility
rr = Quantités de précipitations

stations d'obs. à proximité